[Iaude] MPEC F111: 2022 FG3 [a=2.10,e=0.52,i=1.7,H=25.8]

mpec at marsden.cfa.harvard.edu mpec at marsden.cfa.harvard.edu
Mon Mar 28 06:57:25 EDT 2022


M.P.E.C. 2022-F111                               Issued 2022 March 28, 10:55 UT

     The Minor Planet Electronic Circulars contain information on unusual
         minor planets and routine data on comets.  They are published
    on behalf of Division F of the International Astronomical Union by the
          Minor Planet Center, Smithsonian Astrophysical Observatory,
                          Cambridge, MA 02138, U.S.A.

             Prepared using the Tamkin Foundation Computer Network

                              MPC at CFA.HARVARD.EDU
            URL https://www.minorplanetcenter.net/    ISSN 1523-6714

                                    2022 FG3                                    


Observations:
     K22F03G* C2022 03 27.27264511 47 54.58 +34 24 15.9          20.79GVEF111G96
     K22F03G  C2022 03 27.27827811 47 59.58 +34 24 43.2          20.38GVEF111G96
     K22F03G  C2022 03 27.28392911 48 04.60 +34 25 10.3          20.27GVEF111G96
     K22F03G  C2022 03 27.28960411 48 09.62 +34 25 37.2          20.33GVEF111G96
     K22F03G KC2022 03 27.36878211 49 20.67 +34 31 43.5          20.33GVEF111I52
     K22F03G KC2022 03 27.36976311 49 21.55 +34 31 48.0          20.41GVEF111I52
     K22F03G KC2022 03 27.37074211 49 22.49 +34 31 52.3          20.43GVEF111I52
     K22F03G KC2022 03 27.37172211 49 23.37 +34 31 56.3          20.89GVEF111I52
     K22F03G 1C2022 03 27.78737 11 56 40.33 +35 03 42.9          19.7 VXEF111033
     K22F03G 1C2022 03 27.78829 11 56 41.27 +35 03 47.6          20.2 VXEF111033
     K22F03G 1C2022 03 27.78921 11 56 42.21 +35 03 52.5          20.3 VXEF111033
     K22F03G 1C2022 03 27.79016 11 56 43.17 +35 03 57.5          20.7 VXEF111033
     K22F03G 1C2022 03 27.83037011 57 24.04 +35 07 32.0                VEF111246
     K22F03G 1C2022 03 27.83448411 57 28.21 +35 07 53.1                VEF111246
     K22F03G 1C2022 03 27.83539111 57 29.10 +35 07 57.8          20.9 GVEF111246
     K22F03G 1C2022 03 27.83579011 57 29.51 +35 07 59.3                VEF111246
     K22F03G KC2022 03 27.85010411 57 46.63 +35 09 10.9          20.6 GXEF111I93
     K22F03G KC2022 03 27.86473411 58 01.44 +35 10 25.9          20.3 GXEF111I93
     K22F03G pC2022 03 27.88262311 58 17.19 +35 12 04.3          20.7 GVEF111L01
     K22F03G KC2022 03 27.88333 11 58 18.72 +35 12 03.2                VEF111204
     K22F03G pC2022 03 27.88470111 58 19.23 +35 12 15.0          20.6 GVEF111L01
     K22F03G KC2022 03 27.88522111 58 21.63 +35 11 48.3          20.1 GVEF111J95
     K22F03G pC2022 03 27.88677911 58 21.37 +35 12 25.5          21.0 GVEF111L01
     K22F03G KC2022 03 27.89066011 58 27.16 +35 12 16.1          20.2 GVEF111J95
     K22F03G pC2022 03 27.89100811 58 25.57 +35 12 46.8          20.5 GVEF111L01
     K22F03G pC2022 03 27.89324011 58 27.85 +35 12 57.2          20.5 GVEF111L01
     K22F03G KC2022 03 27.89610911 58 32.68 +35 12 43.0          20.5 GVEF111J95
     K22F03G KC2022 03 27.90355 11 58 39.11 +35 13 44.2          20.6 GVEF111204
     K22F03G KC2022 03 28.06411912 01 40.47 +35 26 33.8          20.2 GXEF111W34
     K22F03G KC2022 03 28.08088712 01 58.14 +35 28 01.7          20.1 GXEF111W34
     K22F03G KC2022 03 28.09535912 02 13.37 +35 29 17.2          20.1 GXEF111W34
     K22F03G 1C2022 03 28.13008 12 02 33.85 +35 30 55.7          20.8 VXEF111033
     K22F03G 1C2022 03 28.13089 12 02 34.72 +35 30 59.2          20.3 VXEF111033
     K22F03G 1C2022 03 28.13169 12 02 35.59 +35 31 02.7          20.9 VXEF111033
     K22F03G KC2022 03 28.17833712 03 41.02 +35 35 58.9          20.6 VuEF111H21
     K22F03G KC2022 03 28.18392912 03 46.89 +35 36 26.7          20.4 VuEF111H21
     K22F03G KC2022 03 28.18970512 03 52.96 +35 36 55.2          20.4 VuEF111H21
     K22F03G KC2022 03 28.26365 12 05 12.63 +35 42 53.8          20.7 RqEF111H36
     K22F03G KC2022 03 28.26947 12 05 18.91 +35 43 20.6          20.7 RqEF111H36
     K22F03G KC2022 03 28.27527 12 05 25.05 +35 43 48.1          20.1 RqEF111H36
     K22F03G mC2022 03 28.34066812 06 38.02 +35 49 18.0          21.93GVEF111I52
     K22F03G mC2022 03 28.34108812 06 38.43 +35 49 20.4          20.75GVEF111I52
     K22F03G mC2022 03 28.34150712 06 38.79 +35 49 20.6          20.96GVEF111I52

Observer details:
033 Karl Schwarzschild Observatory, Tautenburg.  Observers S. Melnikov, C.
    Hoegner, U. Laux, F. Ludwig, B. Stecklum.  Measurer B. Stecklum.  1.34-m
    f/3 Schmidt + CCD.
204 Schiaparelli Observatory.  Observer L. Buzzi.  0.84-m f/3.5 reflector +
    CCD.
246 Klet Observatory-KLENOT.  Observers M. Tichy, J. Ticha, M. Honkova.
    Measurer M. Tichy.  1.06-m f/2.7 reflector + 2048x2048 CCD.
G96 Mt. Lemmon Survey.  Observer R. A. Kowalski.  Measurers E. J. Christensen,
    G. A. Farneth, J. B. Fazekas, D. C. Fuls, A. R. Gibbs, A. D. Grauer, H.
    Groeller, J. K. Hogan, R. A. Kowalski, S. M. Larson, G. J. Leonard, D.
    Rankin, R. L. Seaman, A. Serrano, F. C. Shelly, K. W. Wierzchos.  1.5-m
    reflector + 10K CCD.
H21 Astronomical Research Observatory, Westfield.  Observer R. Holmes.
    Measurers T. Linder, R. Holmes, L. Horn.  0.76-m f/3.0 astrograph + CCD.
H36 Sandlot Observatory, Scranton.  Observer G. Hug.  0.56-m reflector + CCD.
I52 Steward Observatory, Mt. Lemmon Station.  Observer H. Groeller.  Measurers
    E. J. Christensen, G. A. Farneth, J. B. Fazekas, D. C. Fuls, A. R. Gibbs,
    A. D. Grauer, H. Groeller, J. K. Hogan, R. A. Kowalski, S. M. Larson, G.
    J. Leonard, D. Rankin, R. L. Seaman, A. Serrano, F. C. Shelly, K. W.
    Wierzchos.
I93 St Pardon de Conques.  Observer F. Losse.  0.40-m f/3.7 reflector + CCD.
J95 Great Shefford.  Observer P. Birtwhistle.  0.41-m f/6.3 Schmidt-Cassegrain
    + CCD.
L01 Visnjan Observatory, Tican.  Observer K. Korlevic.  1.0-m f/2.9 reflector
    + CCD.
W34 Squirrel Valley Observatory, Columbus.  Observer R. L. Flynn.  0.36-m
    f/1.9 Schmidt-Cassegrain + CCD.

Orbital elements:
2022 FG3                                                 Earth MOID = 0.0286 AU
Epoch 2022 Jan. 21.0 TT = JDT 2459600.5                 Veres                   
M 332.50661              (2000.0)            P               Q                  
n   0.32494909     Peri.   73.26780     -0.88145985     +0.47178861             
a   2.0953625      Node   134.87680     -0.44382855     -0.81232201             
e   0.5189442      Incl.    1.70406     -0.16138387     -0.34285342             
P   3.03           H   25.89          G   0.15           U   7                  
Residuals in seconds of arc
220327 G96  0.3-  0.0     220327 246  0.4-  0.9+    220328 W34  0.8+  0.0
220327 G96  0.2-  0.2+    220327 I93  0.2+  0.2+    220328 033  0.5+  0.2+
220327 G96  0.0   0.2+    220327 I93  0.5-  0.0     220328 033  0.4+  0.2+
220327 G96  0.2-  0.1+    220327 L01  0.1-  0.3-    220328 033  0.4+  0.2+
220327 I52  0.1+  0.1-    220327 204  0.1-  0.1-    220328 H21  0.0   0.2-
220327 I52  0.1-  0.0     220327 L01  0.7-  0.1+    220328 H21  0.0   0.1-
220327 I52  0.5+  0.1-    220327 J95  0.5+  0.4-    220328 H21  0.0   0.0
220327 I52  0.3+  0.5-    220327 L01  0.1-  0.3+    220328 H36  0.6-  0.8+
220327 033  0.1-  0.4+    220327 J95  0.2+  0.0     220328 H36  0.7+  0.2+
220327 033  0.1-  0.4+    220327 L01  0.7-  0.6+    220328 H36  0.4+  0.4+
220327 033  0.1-  0.5+    220327 L01  0.3-  0.0     220328 I52  0.1-  0.0
220327 033  0.2-  0.6+    220327 J95  0.3-  0.5-    220328 I52  0.5-  0.6+
220327 246  0.3-  1.1+    220327 204  0.1-  0.1+    220328 I52 (1.6-  1.1-)
220327 246  0.2-  1.3+    220328 W34  0.4+  0.6-
220327 246  0.5-  1.4+    220328 W34  0.4+  0.4-

Ephemeris:
2022 FG3                 a,e,i = 2.10, 0.52, 2                   q = 1.0080
Date    TT    R. A. (2000) Decl.     Delta      r    Elong.  Phase     V
2022 02 26    09 58 15.1 +16 32 37   0.1784  1.1652   168.2    10.0    23.1
...
2022 03 13    10 13 45.9 +21 56 53   0.1042  1.0880   153.5    24.1    22.3
...
2022 03 21    10 44 16.4 +27 22 05   0.07029 1.0556   147.1    30.8    21.6
...
2022 03 27    11 43 35.8 +34 02 32   0.04826 1.0363   142.5    35.9    20.9
2022 03 28    12 00 18.7 +35 22 02   0.04510 1.0336   141.4    37.0    20.7
2022 03 29    12 20 05.8 +36 40 34   0.04216 1.0309   140.1    38.4    20.6
...
2022 04 04    15 31 20.0 +37 13 22   0.03223 1.0180   123.3    55.2    20.5
...
2022 04 12    18 42 08.7 +14 31 37   0.04583 1.0089    97.0    80.4    22.0
...
2022 04 27    20 03 42.9 -02 23 53   0.09904 1.0175    93.6    80.8    23.7

M. P. C. Staff               (C) Copyright 2022 MPC           M.P.E.C. 2022-F111




More information about the Iaude mailing list